Location: Tucson
(32.2217°N, 110.9265°W)
Time: 19:58:24
(UTC-07:00)

BlueWalker 3 - Visible Passes

Search period start: 30 November 2023 00:00
Search period end: 10 December 2023 00:00
Orbit: 489 x 504 km, 53.2° (Epoch: 29 November)

Date Brightness Start Highest point End Pass type
(mag) Time Alt. Az. Time Alt. Az. Time Alt. Az.
02 Dec 3.3 06:31:04 10° NNW 06:34:35 33° NE 06:38:02 10° ESE visible
03 Dec 3.3 06:08:28 10° NNW 06:11:56 33° NE 06:15:23 10° ESE visible
04 Dec 3.3 05:47:00 18° NNW 05:49:16 33° NE 05:52:43 10° ESE visible
05 Dec 3.3 05:25:36 28° N 05:26:36 32° NE 05:30:02 10° ESE visible
06 Dec 3.5 05:04:15 31° NE 05:04:15 31° NE 05:07:20 10° ESE visible
06 Dec 3.4 06:39:08 10° WNW 06:42:05 21° SW 06:45:00 10° S visible
07 Dec 4.4 04:42:58 21° E 04:42:58 21° E 04:44:36 10° ESE visible
07 Dec 3.4 06:17:33 16° W 06:19:23 22° SW 06:22:20 10° S visible
08 Dec 5.3 04:21:44 11° ESE 04:21:44 11° ESE 04:21:52 10° ESE visible
08 Dec 3.3 05:56:19 22° WSW 05:56:39 22° SW 05:59:38 10° S visible
09 Dec 3.7 05:35:07 19° SSW 05:35:07 19° SSW 05:36:56 10° S visible
09 Dec 4.4 19:12:01 10° S 19:12:35 13° S 19:12:35 13° S visible
